Home   Weather   Lakewood   Past weeks

Flag for USA Past Weather in Lakewood, New Jersey, USA — Yesterday and Last 2 Weeks

Now
71 °F

Partly sunny.


Feels Like: 64 °F
Forecast: 70 / 80 °F
Wind: 7 mph from Southeast

Location: Lakehurst Naval Air Station

Current Time: Jul 24, 2017 at 6:40:00 am

Latest Report: Jul 24, 2017 at 6:12 am


Visibility: 10 mi

Pressure: 29.73 "Hg

Humidity: 100%

Dew Point: 71 °F

Location of LakewoodLocation

Past Weather in Lakewood — Graph

°F

Lakewood Temperature Yesterday

Maximum temperature yesterday: 81 °F (at 4:00 pm)
Minimum temperature yesterday: 71 °F (at 8:07 am)
Average temperature yesterday: 75 °F

High & Low Weather Summary for the Past Weeks

 TemperatureHumidityPressure
High95 °F (Jul 13, 2:00 pm)100% (Jul 9, 5:00 am)30.11 "Hg (Jul 9, 5:00 am)
Low53 °F (Jul 10, 5:00 am)15% (Jul 12, 3:00 pm)29.70 "Hg (Jul 23, 1:00 am)
Average77 °F79%29.95 "Hg
* Reported Jul 9 5:00 am — Jul 24 5:22 am, Lakewood. Weather by CustomWeather, © 2017

Note: Actual official high and low records may vary slightly from our data, if they occured in-between our weather recording intervals... More about our weather records

Advertising

Lakewood Weather History for the Previous 24 Hours

Scroll right to see more
 ConditionsComfort  
Time TempWeatherWind HumidityBarometerVisibility
5:22 am
Mon, Jul 24
72 °FPartly cloudy.9 mph100%29.72 "Hg9 mi
5:08 am72 °FThunderstorms. Fog.7 mph100%29.74 "Hg4 mi
4:38 am74 °FThunderstorms. Fog.7 mph91%29.74 "Hg3 mi
4:16 am72 °FThunderstorms. Fog.7 mph100%29.77 "Hg2 mi
3:00 am72 °FLow clouds.9 mph100%29.76 "Hg7 mi
2:09 am72 °FLight rain. Fog.9 mph100%29.77 "Hg5 mi
2:00 am72 °FRain. Fog.12 mph100%29.77 "Hg3 mi
1:49 am72 °FRain. Fog.9 mph100%29.78 "Hg2 mi
1:41 am72 °FHeavy rain. Fog.9 mph100%29.78 "Hg3 mi
1:26 am72 °FHeavy rain. Fog.8 mph97%29.79 "Hg2 mi
12:31 am72 °FLight rain. Fog.7 mph93%29.81 "Hg5 mi
12:00 am72 °FRain. Fog.7 mph91%29.81 "Hg4 mi
11:00 pm
Sun, Jul 23
73 °FLight rain. Overcast.10 mph79%29.83 "Hg6 mi
10:00 pm74 °FLight rain. Passing clouds.9 mph76%29.83 "Hg10 mi
9:00 pm74 °FPassing clouds.9 mph76%29.83 "Hg10 mi
8:00 pm75 °FSunny.8 mph74%29.82 "Hg10 mi
7:15 pm76 °FScattered clouds.10 mph74%29.83 "Hg10 mi
7:00 pm76 °FPartly sunny.12 mph77%29.81 "Hg10 mi
6:00 pm78 °FPassing clouds.10 mph69%29.80 "Hg10 mi
5:00 pm80 °FSunny.13 mph64%29.80 "Hg10 mi
4:00 pm81 °FPassing clouds.12 mph58%29.80 "Hg10 mi
3:00 pm80 °FPartly sunny.10 mph60%29.80 "Hg10 mi
2:00 pm79 °FMostly cloudy.9 mph65%29.81 "Hg10 mi
1:00 pm78 °FOvercast.9 mph64%29.81 "Hg10 mi
12:00 pm77 °FOvercast.10 mph74%29.80 "Hg8 mi
11:00 am75 °FOvercast.6 mph82%29.81 "Hg9 mi
10:06 am73 °FOvercast.5 mph81%29.80 "Hg9 mi
10:00 am73 °FOvercast.3 mph78%29.80 "Hg9 mi
9:00 am71 °FOvercast.6 mph90%29.78 "Hg9 mi
8:07 am71 °FFog.8 mph93%29.76 "Hg6 mi
7:53 am72 °FLight rain. Fog.8 mph94%29.76 "Hg2 mi
7:10 am72 °FFog.6 mph100%29.74 "Hg4 mi
6:53 am72 °FFog.6 mph97%29.75 "Hg3 mi
6:35 am72 °FFog.7 mph97%29.74 "Hg3 mi
6:00 am72 °FFog.3 mph97%29.73 "Hg4 mi
Weather by CustomWeather, © 2017

See weather overviewHow to use our weather pages